Flag for Germany Weather past 2 weeks in Cologne, North Rhine-Westphalia, Germany

Now
55 °F

Scattered clouds.


Feels Like: 53 °F
Forecast: 53 / 61 °F
Wind: 9 mph from Southwest

Location: Koeln / Bonn

Current Time: Sep 4, 2015 at 10:23:15 AM

Latest Report: Sep 4, 2015 at 9:50 AM


Visibility: N/A

Pressure: 29.98 "Hg

Humidity: 77%

Dew point: 48 °F

Location of CologneLocation

Historic Weather in Cologne — Graph

°F

Cologne temperature yesterday

Maximum temperature yesterday: 68 °F (at 3:20 PM)
Minimum temperature yesterday: 48 °F (at 7:50 AM)
Average temperature yesterday: 57 °F

Past Weeks' High & Low Weather Summary

 TemperatureHumidityPressure
High93 °F (Aug 30, 4:20 PM)100% (Sep 1, 8:20 AM)30.27 "Hg (Sep 1, 8:20 AM)
Low48 °F (Sep 3, 7:50 AM)26% (Aug 23, 3:20 PM)29.56 "Hg (Aug 24, 2:20 PM)
Average66 °F69%29.97 "Hg
* Reported Aug 20 9:20 AM — Sep 4 9:20 AM, Cologne, Weather by CustomWeather, © 2015

Note: Actual official high and low records may vary slightly from our data, if they occured in-between our weather recording intervals... More about our weather records

Advertising

Cologne weather history for previous 24 hours

 ConditionsComfort  
Time TempWeatherWind HumidityBarometerVisibility
9:20 AM
Fri, Sep 4
55 °FScattered clouds.7 mph77%29.98 "HgN/A
8:50 AM54 °FPassing clouds.7 mph82%29.98 "HgN/A
8:20 AM52 °FScattered clouds.7 mph88%29.98 "HgN/A
7:50 AM50 °FScattered clouds.6 mph94%29.98 "HgN/A
7:20 AM52 °FPassing clouds.7 mph88%29.98 "HgN/A
6:50 AM52 °FPassing clouds.7 mph88%29.98 "HgN/A
6:20 AM52 °FPartly cloudy.6 mph88%29.98 "HgN/A
5:50 AM52 °FPartly cloudy.3 mph88%29.98 "HgN/A
5:20 AM52 °FClear.5 mph88%29.98 "Hg10 mi
4:50 AM54 °FPartly cloudy.5 mph82%29.98 "HgN/A
4:20 AM54 °FPassing clouds.7 mph82%29.98 "HgN/A
3:50 AM54 °FPassing clouds.6 mph82%29.98 "HgN/A
3:20 AM52 °FPartly cloudy.3 mph88%29.98 "HgN/A
2:50 AM52 °FPartly cloudy.3 mph88%29.98 "HgN/A
2:20 AM52 °FClear.5 mph94%29.98 "Hg10 mi
1:50 AM52 °FClear.3 mph94%29.98 "Hg10 mi
1:20 AM52 °FLight rain. Clear.5 mph94%29.98 "HgN/A
12:50 AM52 °FClear.3 mph88%29.98 "Hg10 mi
12:20 AM52 °FClear.3 mph88%29.98 "Hg10 mi
11:20 PM
Thu, Sep 3
54 °FClear.3 mph82%29.98 "Hg10 mi
10:50 PM54 °FClear.6 mph88%29.98 "Hg10 mi
10:20 PM54 °FClear.2 mph88%29.98 "Hg10 mi
9:50 PM54 °FClear.1 mph82%29.98 "Hg10 mi
9:20 PM54 °FClear.3 mph82%29.98 "Hg10 mi
8:50 PM55 °FSunny.3 mph77%29.98 "Hg10 mi
8:20 PM55 °FSunny.5 mph82%29.98 "Hg10 mi
7:50 PM57 °FBroken clouds.8 mph77%29.95 "HgN/A
7:20 PM57 °FScattered showers. Partly sunny.10 mph77%29.95 "HgN/A
6:50 PM59 °FSprinkles. Partly sunny.23 mph68%29.95 "HgN/A
6:20 PM64 °FScattered showers. Partly sunny.10 mph52%29.92 "HgN/A
5:20 PM64 °FScattered clouds.10 mph52%29.92 "HgN/A
4:50 PM66 °FScattered clouds.10 mph52%29.92 "HgN/A
4:20 PM64 °FScattered clouds.7 mph52%29.92 "HgN/A
3:50 PM66 °FScattered clouds.10 mph49%29.92 "HgN/A
3:20 PM68 °FScattered clouds.10 mph49%29.92 "HgN/A
2:50 PM66 °FScattered clouds.12 mph56%29.95 "HgN/A
2:20 PM66 °FPassing clouds.9 mph56%29.95 "HgN/A
1:50 PM64 °FPassing clouds.8 mph60%29.95 "HgN/A
1:20 PM61 °FSprinkles. Scattered clouds.8 mph72%29.95 "HgN/A
12:50 PM64 °FSprinkles. Scattered clouds.7 mph60%29.95 "HgN/A
12:20 PM63 °FScattered clouds.6 mph64%29.95 "HgN/A
11:50 AM63 °FScattered clouds.8 mph68%29.95 "HgN/A
11:20 AM59 °FScattered clouds.6 mph77%29.98 "HgN/A
10:50 AM57 °FScattered clouds.5 mph82%29.98 "HgN/A
10:20 AM57 °FScattered clouds.3 mph88%29.98 "HgN/A
Weather by CustomWeather, © 2015

See weather overviewHow to use our weather pages